Simultaneous Nadir Overpasses (SNOs) Predictions

Prediction of SNOs between AQUA and GOES-15 Satellite Orbit:

Table of predicted SNOs for the next 14.0 days since TLE Epoch: 1/18/2013
Index Date Time (AQUA) AQUA Lat,Lon GOES-15 Lat,Lon Distance(km) Time Diff (sec)
1 01/19/2013 10:32:08 -0.21,-134.20 -0.09,-134.89 77.04 80
2 01/21/2013 10:19:55 -0.85,-131.24 -0.09,-134.81 405.85 80
3 01/21/2013 22:41:19 -0.24,-136.43 0.09,-134.75 190.55 80
4 01/23/2013 22:29:05 0.33,-133.45 0.08,-134.67 137.62 80
5 01/24/2013 10:50:20 0.78,-138.60 -0.09,-134.68 446.48 80
6 01/25/2013 22:16:52 0.95,-130.49 0.08,-134.58 465.19 80
7 01/26/2013 10:38:07 0.15,-135.64 -0.08,-134.59 119.14 80
8 01/28/2013 10:25:54 -0.47,-132.67 -0.08,-134.50 207.64 80
9 01/28/2013 22:47:17 -0.62,-137.86 0.08,-134.43 389.98 80
10 01/30/2013 22:35:04 -0.06,-134.88 0.08,-134.33 63.85 80




NCC Satellite Simultaneous Nadir Overpasses (SNOs) Prediction Service
